Probability
0 0 0 0 0 0 0 0 0 0 0 0 0 0 0 0 0 0 0 0 0 0 0 0 0 0 0 0 0 0 0 0 0 0 0 0 0 0
0 0 0 0 0 0 0 0 0 0 0 0 0 0 0 0 0 0 0 0 0 0 0 0 0 0 0 0 0 0 0 0 0 0 0 0 0 0
0 0 0 0 0 0 0 0 0 0 0 0 0 0 0 0 0 0 0 0 0 0 0 0 0 0 0 0 0 0 0 0 0 0 0 0 0 0
0 0 0 0 0 0 0 0 0 0 0 0 0 0 0 0 0 0 0 0 0 0 0 0 0 0 0 0 0 0 0 0 0 0 0 0 0 0
0 0 0 0 0 0 0 0 0 0 0 0 0 0 0 0 0 0 0 0 0 0 0 0 0 0 0 0 0 0 0 0 0 0 0 0 0 0
0 0 0 0 0 0 0 0 0 0 0 0 0 0 0 0 0 0 0 0 0 0 0 0 0 0 0 0 0 0 0 0 0 0 0 0 0 0
0 0 0 0 0 0 0 0 0 0 0 0 0 0 0 0 0 0 0 0 0 0 0 0 0 0 0 0 0 0 0 0 0 0 0 0 0 0
0 0 0 0 0 0 0 0 0 0 0 0 0 0 0 0 0 0 0 0 0 0 0 0 0 0 0 0 0 0 0 0 0 0 0 0 0 0
0 0 0 0 0 0 0 0 0 0 0 0 0 0 0 0 0 0 0 0 0 0 0 0 0 0 0 0 0 0 0 0 0 0 0 0 0 0
0 0 0 0 0 0 0 0 0 0 0 0 0 0 0 0 0 0 0 0 0 0 0 0 0 0 0 0 0 0 0 0 0 0 0 0 0 0
0 0 0 0 0 0 0 0 0 0 0 0 0 0 0 0 0 0 0 0 0 0 0 0 0 0 0 0 0 0 0 0 0 0 0 0 0 0
0 0 0 0 0 0 0 0 0 0 0 0 0 0 0 0 0 0 0 0 0 0 0 0 0 0 0 0 0 0 0 0 0 0 0 0 0 0
0 0 0 0 0 0 0 0 0 0 0 0 0 0 0 0 0 0 0 0 0 0 0 0 0 0 0 0 0 0 0 0 0 0 0 0 0 0
0 0 0 0 0 0 0 0 0 0 0 0 0 0 0 0 0 0 0 0 0 0 0 0 0 0 0 0 0 0 0 0 0 0 0 0 0 0
0 0 0 0 0 0 0 0 0 0 0 0 0 0 0 0 0 0 0 0 0 0 0 0 0 0 0 0 0 0 0 0 0 0 0 0 0 0
0 0 0 0 0 0 0 0 0 0 0 0 0 0 0 0 0 0 0 0 0 0 0 0 0 0 0 0 0 0 0 0 0 0 0 0 0 0
0 0 0 0 0 0 0 0 0 0 0 0 0 0 0 0 0 0 0 0 0 0 0 0 0 0 0 0 0 0 0 0 0 0 0 0 0 0
0 0 0 0 0 0 0 0 0 0 0 0 0 0 0 0 0 0 0 0 0 0 0 0 0 0 0 0 0 0 0 0 0 0 0 0 0 0
0 0 0 0 0 0 0 0 0 0 0 0 0 0 0 0 0 0 0 0 0 0 0 0 0 0 0 0 0 0 0 0 0 0 0 0 0 0
0 0 0 0 0 0 0 0 0 0 0 0 0 0 0 0 0 0 0 0 0 0 0 0 0 0 0 0 0 0 0 0 0 0 0 0 0 0
0 0 0 0 0 0 0 0 0 0 0 0 0 0 0 0 0 0 0 0 0 0 0 0 0 0 0 0 0 0 0 0 0 0 0 0 0 0
0 0 0 0 0 0 0 0 0 0 0 0 0 0 0 0 0 0 0 0 0 0 0 0 0 0 0 0 0 0 0 0 0 0 0 0 0 0
0 0 0 0 0 0 0 0 0 0 0 0 0 0 0 0 0 0 0 0 0 0 0 0 0 0 0 0 0 0 0 0 0 0 0 0 0 0
Height
5703 5705 5707 5709 5711 5714 5716 5719 5721 5723 5726 5727 5728 5729 5731 5733 5734 5736 5737 5739 5740 5741 5741 5741 5741 5741 5741 5740 5739 5737 5736 5734 5733 5731 5730 5728 5726 5724
5691 5693 5695 5698 5700 5702 5704 5707 5709 5712 5714 5716 5717 5718 5719 5721 5723 5725 5726 5728 5729 5730 5730 5731 5731 5731 5730 5730 5729 5727 5726 5724 5722 5721 5719 5718 5716 5713
5678 5681 5684 5686 5688 5690 5692 5695 5697 5699 5702 5705 5706 5707 5708 5710 5711 5713 5715 5716 5718 5719 5719 5720 5720 5720 5719 5719 5718 5717 5715 5713 5711 5710 5708 5707 5705 5703
5666 5669 5671 5673 5676 5678 5681 5683 5686 5687 5690 5693 5694 5696 5697 5698 5700 5701 5703 5705 5706 5707 5708 5709 5709 5709 5708 5708 5707 5706 5704 5702 5701 5699 5697 5696 5694 5691
5653 5656 5658 5660 5663 5666 5668 5671 5673 5675 5677 5680 5683 5684 5685 5687 5688 5690 5691 5693 5694 5695 5696 5697 5697 5697 5697 5696 5696 5694 5693 5691 5689 5688 5686 5684 5682 5679
5640 5643 5645 5647 5650 5653 5655 5658 5660 5662 5665 5667 5670 5672 5673 5674 5676 5678 5679 5680 5682 5683 5684 5684 5685 5685 5685 5684 5684 5682 5681 5679 5677 5676 5674 5672 5670 5667
5627 5629 5632 5634 5637 5639 5642 5645 5647 5649 5652 5654 5656 5658 5660 5662 5664 5665 5667 5668 5669 5670 5671 5672 5672 5672 5672 5671 5671 5670 5668 5667 5665 5664 5662 5660 5657 5655
5613 5616 5618 5621 5623 5626 5628 5631 5634 5636 5638 5640 5643 5645 5647 5648 5650 5652 5654 5655 5657 5658 5658 5659 5659 5659 5659 5659 5658 5657 5656 5654 5653 5651 5649 5647 5645 5642
5599 5602 5604 5607 5609 5612 5615 5617 5620 5622 5624 5627 5629 5631 5633 5635 5637 5639 5640 5641 5642 5643 5644 5645 5645 5645 5645 5645 5644 5643 5642 5641 5640 5638 5636 5634 5631 5629
5586 5588 5591 5594 5596 5598 5601 5603 5606 5608 5610 5613 5615 5617 5618 5620 5622 5624 5625 5626 5628 5628 5629 5631 5631 5632 5631 5631 5630 5629 5629 5627 5626 5624 5622 5620 5618 5615
5572 5575 5577 5580 5583 5585 5587 5590 5592 5594 5596 5598 5600 5602 5604 5606 5607 5608 5610 5611 5614 5615 5615 5617 5617 5617 5617 5616 5616 5615 5614 5613 5611 5609 5607 5605 5603 5601
5559 5561 5564 5566 5569 5570 5573 5575 5577 5580 5582 5584 5586 5588 5590 5591 5593 5594 5595 5597 5598 5601 5601 5602 5603 5602 5603 5603 5601 5601 5599 5598 5596 5594 5592 5590 5588 5586
5546 5548 5550 5552 5554 5556 5559 5561 5563 5565 5567 5570 5572 5574 5575 5577 5578 5580 5581 5582 5584 5585 5586 5587 5587 5587 5587 5588 5588 5586 5585 5584 5582 5579 5577 5575 5574 5572
5532 5534 5536 5538 5540 5542 5544 5546 5549 5551 5553 5555 5557 5559 5561 5562 5564 5565 5567 5568 5569 5570 5571 5571 5572 5573 5573 5573 5573 5572 5570 5568 5567 5565 5563 5561 5559 5558
5519 5521 5523 5525 5527 5528 5530 5532 5534 5536 5538 5541 5543 5545 5547 5548 5550 5551 5552 5553 5554 5555 5556 5556 5557 5557 5557 5558 5558 5557 5556 5554 5552 5551 5549 5547 5546 5544
5507 5508 5510 5512 5514 5515 5517 5518 5520 5523 5525 5527 5530 5531 5533 5534 5535 5537 5538 5539 5540 5541 5541 5542 5542 5542 5543 5543 5542 5542 5540 5540 5539 5537 5536 5534 5532 5530
5495 5496 5498 5500 5501 5502 5504 5506 5508 5510 5512 5514 5516 5518 5519 5520 5521 5522 5524 5525 5526 5527 5527 5527 5527 5527 5527 5527 5527 5527 5526 5525 5524 5523 5522 5521 5519 5517
5484 5485 5487 5488 5490 5491 5493 5494 5495 5497 5499 5501 5503 5505 5506 5507 5508 5509 5510 5511 5512 5513 5513 5513 5513 5513 5513 5513 5512 5512 5512 5512 5510 5509 5508 5507 5507 5505
5473 5475 5476 5477 5479 5480 5481 5482 5484 5485 5487 5489 5490 5492 5493 5493 5494 5495 5496 5497 5498 5498 5499 5499 5499 5499 5499 5500 5499 5498 5498 5498 5497 5496 5494 5494 5494 5493
5463 5464 5466 5467 5468 5469 5470 5471 5472 5473 5475 5476 5478 5479 5480 5481 5481 5482 5483 5483 5484 5484 5485 5484 5485 5485 5486 5487 5486 5485 5483 5484 5483 5483 5482 5481 5481 5480
5452 5454 5455 5456 5457 5458 5459 5460 5461 5462 5463 5464 5465 5467 5468 5469 5469 5470 5470 5471 5471 5471 5472 5472 5472 5472 5472 5472 5473 5473 5471 5470 5470 5470 5469 5469 5468 5468
5442 5443 5444 5445 5446 5447 5448 5448 5449 5450 5451 5452 5453 5454 5455 5456 5457 5458 5458 5459 5459 5459 5459 5459 5459 5459 5459 5460 5460 5461 5460 5459 5458 5457 5456 5456 5455 5455
5431 5432 5433 5434 5435 5436 5436 5437 5438 5438 5439 5440 5441 5442 5443 5444 5445 5446 5447 5447 5447 5447 5448 5448 5448 5447 5448 5448 5448 5448 5448 5447 5446 5446 5445 5444 5443 5442
Wind_Speed
46 47 46 46 46 46 46 46 45 44 43 42 42 41 41 40 39 39 39 38 38 37 37 36 36 36 36 36 36 36 36 37 37 37 37 37 38 38
47 46 47 47 46 47 47 46 46 45 44 43 42 42 42 41 41 40 40 40 40 39 39 38 38 38 38 38 38 38 38 38 39 39 39 39 39 39
47 47 47 47 47 47 47 47 46 46 45 44 43 42 41 42 41 41 41 41 41 40 40 40 39 39 39 39 39 39 39 40 40 41 41 40 40 41
48 48 48 48 48 48 48 48 48 48 47 46 45 44 43 42 42 42 42 43 42 42 42 42 41 40 41 41 41 40 41 41 41 41 42 42 42 42
47 47 47 48 48 48 48 48 48 47 47 46 45 45 45 44 44 42 42 43 44 43 43 44 43 42 42 42 42 42 41 41 42 42 43 43 43 44
48 47 48 48 48 48 48 47 47 47 47 46 46 47 47 46 45 44 43 44 45 45 44 44 44 44 44 44 44 43 43 42 43 43 44 44 44 44
48 48 48 49 49 49 49 49 48 47 47 47 46 47 48 48 46 45 45 45 45 46 45 45 45 45 45 45 45 45 45 44 45 45 45 45 45 45
48 48 49 49 49 50 50 50 50 49 49 48 47 47 47 48 48 47 47 47 47 47 47 47 47 46 46 47 46 46 46 46 45 46 46 46 46 47
47 47 47 48 49 50 50 50 50 49 50 49 48 47 48 48 49 50 50 50 50 49 49 48 48 48 48 48 48 47 47 47 47 47 47 48 48 49
46 46 45 45 47 48 49 49 49 49 49 50 50 49 49 50 51 51 52 52 51 51 51 49 49 49 49 49 48 48 49 49 48 49 49 49 49 48
47 47 47 47 47 47 48 49 49 50 49 50 50 50 50 50 50 51 52 52 52 51 51 50 49 49 49 49 49 49 50 50 50 50 50 50 49 48
47 47 48 48 48 48 48 48 48 49 49 50 51 50 50 50 50 51 53 53 52 52 52 52 51 51 51 50 50 50 50 50 50 51 51 50 50 49
46 47 47 48 48 48 49 49 49 48 49 49 49 50 50 50 50 51 52 52 51 51 51 51 51 52 52 50 50 51 51 51 50 51 51 50 49 49
45 45 45 46 47 48 48 48 49 48 48 49 49 49 50 50 50 50 50 50 50 50 50 51 50 51 51 51 50 50 50 50 50 50 49 49 48 48
43 43 44 44 45 45 46 47 47 48 48 48 48 48 48 49 50 50 50 50 50 50 51 51 51 52 52 51 50 49 49 49 49 48 47 47 47 46
40 41 41 42 43 43 43 44 45 46 46 46 46 47 48 49 50 50 50 50 50 50 50 51 51 51 51 52 51 50 49 48 47 46 45 45 46 46
38 39 38 39 39 40 41 42 43 43 44 44 45 46 47 47 49 50 50 50 50 50 50 50 50 50 51 51 50 50 49 48 47 46 44 43 43 44
36 36 36 37 37 39 40 40 41 42 43 44 45 45 46 46 47 48 48 48 48 48 48 49 49 49 49 49 50 49 49 48 47 46 45 44 43 43
35 35 34 34 35 36 37 38 39 41 42 42 43 43 44 44 45 45 46 46 47 47 47 47 47 48 48 47 47 48 47 46 46 46 45 43 42 41
35 35 34 34 34 35 36 37 38 40 41 42 42 42 42 43 43 43 43 43 44 45 45 46 46 45 45 44 43 43 44 44 43 43 42 41 41 40
35 35 35 35 35 36 36 37 38 39 40 41 42 41 41 41 41 41 41 42 42 43 42 42 43 42 42 42 41 41 42 42 42 41 41 40 39 39
35 35 35 35 35 36 36 37 38 38 39 40 40 39 39 40 40 40 40 39 39 40 40 41 41 41 40 40 40 40 41 41 41 40 40 40 39 38
35 35 35 35 36 36 37 37 37 38 38 38 38 38 39 39 39 39 39 38 38 38 39 40 40 41 41 40 39 39 39 39 39 39 39 40 39 38
Wind_Direction
257 257 257 257 257 258 258 258 259 261 261 261 262 263 264 263 263 264 265 265 266 267 269 271 273 275 278 280 282 284 284 285 284 284 286 287 287 288
256 258 258 258 258 258 259 259 259 260 260 260 262 263 263 263 262 263 264 264 265 267 268 270 272 274 277 278 281 283 284 285 284 284 285 286 287 288
257 258 258 258 258 258 259 260 259 260 260 259 261 262 263 263 262 263 263 263 265 267 269 270 272 274 276 278 280 282 284 285 284 284 284 284 286 287
255 256 257 258 258 258 259 259 260 259 259 259 259 261 263 264 263 263 263 264 265 267 268 269 271 273 275 277 279 281 282 284 284 283 283 284 285 286
256 256 257 257 257 258 259 259 259 258 259 259 260 261 263 264 265 265 264 264 265 266 268 269 271 273 275 276 278 280 281 282 283 282 282 283 283 284
256 256 257 257 258 258 258 258 258 258 259 260 261 262 263 264 265 264 265 264 265 266 268 269 271 273 274 275 277 279 280 281 282 282 283 283 283 284
255 256 257 258 258 257 257 257 258 257 259 260 262 262 262 262 264 264 265 265 265 266 267 268 270 272 274 275 276 278 278 280 281 282 283 283 283 284
256 257 257 257 258 258 257 257 258 258 259 261 262 261 261 262 262 263 264 265 265 266 267 267 269 271 273 275 276 277 278 279 281 282 282 282 283 284
256 257 257 257 257 257 257 258 259 260 260 261 261 261 261 261 263 263 264 265 265 266 267 268 269 271 273 275 275 276 277 279 281 281 282 282 282 283
255 255 255 256 257 257 257 258 259 261 261 261 261 261 261 262 263 264 265 265 265 266 267 268 270 271 273 274 275 276 277 279 280 280 281 282 282 283
255 255 256 257 258 259 259 259 260 261 261 261 260 261 262 263 264 264 264 265 265 265 267 268 269 271 273 273 273 275 277 279 280 280 280 281 281 282
256 257 257 257 258 259 260 260 260 261 261 261 260 261 262 263 263 264 264 265 265 265 266 268 269 271 272 273 274 275 277 279 280 280 280 280 280 280
257 256 257 258 259 259 259 260 261 261 261 261 261 262 262 262 263 263 264 265 265 266 266 268 269 270 272 274 274 275 277 278 280 280 280 280 279 280
258 257 258 258 259 259 259 260 261 261 262 261 261 262 262 262 262 262 263 264 265 266 267 268 269 271 272 273 275 276 277 278 279 280 280 279 279 280
258 258 259 259 259 258 259 260 261 262 262 262 262 262 263 262 262 263 264 264 265 267 268 269 270 271 272 273 275 275 277 278 279 279 279 278 279 279
259 259 259 259 260 259 260 261 261 262 262 262 262 263 263 264 263 264 265 265 266 267 268 270 271 271 272 273 275 277 278 278 278 278 278 278 278 278
260 259 259 260 260 261 262 261 260 259 260 261 261 263 264 265 265 266 267 267 267 268 268 269 270 271 272 273 274 276 278 278 278 277 277 278 278 278
259 259 260 260 260 261 262 262 261 260 260 262 263 264 265 267 267 267 267 267 267 268 269 269 270 271 272 273 274 276 277 277 277 277 278 279 278 278
258 259 260 260 261 261 262 262 261 261 261 262 263 264 266 268 268 268 267 267 268 269 270 271 272 272 272 272 273 275 276 276 276 277 278 278 278 277
258 259 260 261 262 263 264 264 263 262 262 263 264 265 267 268 268 269 269 268 269 270 271 271 272 272 272 272 272 273 274 275 275 276 277 278 278 277
257 258 261 263 264 265 266 266 265 264 264 264 264 265 266 268 268 269 270 270 270 270 271 272 272 272 272 272 271 272 273 274 274 275 276 277 277 276
258 259 262 264 265 266 267 267 266 266 266 265 264 264 265 267 268 269 269 269 269 270 270 270 271 271 272 273 273 272 272 273 274 275 276 277 277 277
259 260 262 264 265 267 267 267 267 266 266 265 264 264 264 266 267 267 268 269 269 269 270 270 271 271 272 273 273 273 272 273 274 275 276 278 279 280